STARLINK-4573, 53623

Orbit data source: Space-Track

STARLINK-4573, 53623 is a payload satellite owned by SpaceX/Seattle (US) in LEO that was launched on Sun, 28 Aug 2022 UTC via an FALCON 9 launch vehicle from the Air Force Eastern Test Range (AFETR). Payload-class satellites include a variety of spacecraft equipped with specific instruments for various scientific and technological missions. These include communications satellites like Starlink; space stations such as the ISS; scientific satellites like the Hubble; Earth observation satellites from companies like Planet Labs, Umbra, and HawkEye 360; GPS; miniature CubeSats for education and research; and military/defense satellites.

Loading next visibility...
Identifier
53623, 2022-104AM
Orbit
LEO
Country
Flag of USUS
Related business
Manufacturer
SpaceX/Seattle
Mission
Operational Commercial Communications
Bus & Motor
STARLINK, Unknown motor
Mass
300 kg wet, ~290 kg dry
Launch date (UTC)
2022-08-28 (3 years ago)
Launch vehicle
FALCON 9
Launch site
Air Force Eastern Test Range (AFETR)
Object type
Payload
Rocket body
Debris
Shape & HBR
Box + 1 Pan, 10.1 m
Radar Cross Section
13.562 m², Large (>1 m²)

Expand to show TLE details & history
Last TLE update: 13 hours ago

TLE from 13 hours ago
0 STARLINK-4573
1 53623U 22104AM  26037.33757466  .00001632  00000-0  12060-3 0  9991
2 53623  53.2198  14.7427 0001453  81.1150 279.0007 15.08845432191010
Epoch: 2026-02-06T08:06Z
TLE epoch observation values (Epoch: 2026-02-06T08:06:06.450Z)
Latitude
-0°
Longitude
116.73893°
Altitude
540.467 km
Speed
7.593 km/s
True Right ascension
00h 58m 58s
True Declination
0° 00' 00"
Sunlit
Object was in daylight at epoch
Visualization orbit readout
Latitude
Unknown
Longitude
Unknown
Altitude
Unknown
Speed
Unknown
Apparent Right ascension
Unknown
Apparent Declination
Unknown
Sunlit
N/A
Visualization observer readout
Local Sidereal Time
23:03:47
Azimuth
Unknown
Elevation
Unknown
Doppler factor
Unknown
Orbital elements
Apogee altitude
540.977 km
Perigee altitude
538.966 km
Semi-major axis
6,918.108 km
Eccentricity
0.00015
Inclination
53.2198°
RAAN
14.7427°
Arg. of periapsis
81.115°
True anomaly
278.98425°
Mean anomaly
279.0007°
Eccentric anomaly
278.99248°
Mean motion
3.77192 °/min
Orbital period
95.44 mins
BSTAR
0.0001206
Loading maneuver chart data...
Computing Atmospheric mass density...
Loading historical data...
Loading historical data...
Loading historical data...
Loading historical data...
Loading historical data...
Loading historical data...
Loading historical data...

Documentation

Showing up to 5 results
|